Regional Weather Roundup
Issued by NWS San Angelo, TX

Home | Current Version | Previous Version | Text Only | Print | Product List | Glossary On
Versions: 1 2 3 4 5 6 7 8 9 10 11 12 13 14 15 16 17 18 19 20 21 22 23 24 25 26 27 28 29 30 31 32 33 34 35 36 37 38 39 40 41 42 43 44 45 46 47 48 49 50
000
ASUS44 KSJT 241410
RWRSJT
WEST CENTRAL TEXAS REGIONAL WEATHER ROUNDUP
NATIONAL WEATHER SERVICE SAN ANGELO TX
900 AM CDT SAT JUN 24 2017

NOTE: "FAIR" INDICATES FEW OR NO CLOUDS BELOW 12,000 FEET WITH NO
SIGNIFICANT WEATHER AND/OR OBSTRUCTIONS TO VISIBILITY.

TXZ049-054-064>066-071>073-076>078-098-099-113-114-127-128-139-140-
154-155-168>170-241500
...LOCATIONS ACROSS WEST CENTRAL TEXAS...

CITY           SKY/WX    TMP DP  RH WIND       PRES   REMARKS
SAN ANGELO     NOT AVBL
ABILENE        LGT RAIN  67  32  27 SE18      30.20R
DYESS AFB      TSTM      67  67 100 E10       30.17S FOG
JUNCTION       LGT RAIN  72  69  90 SW5       30.10R FOG
SWEETWATER     CLOUDY    67  66  97 NE15G22   30.22R
BROWNWOOD      NOT AVBL
COLEMAN        CLOUDY    68  64  85 NE16G22   30.19R
SONORA         CLOUDY    75  64  69 N8        30.14R
OZONA          FAIR      73  63  68 NE18G24   30.15R
BRADY          NOT AVBL
$$

TEXAS PANHANDLE/OKLAHOMA PANHANDLE

CITY           SKY/WX    TMP DP  RH WIND       PRES   REMARKS
AMARILLO       CLOUDY    59  54  83 E12       30.29R
BORGER         CLOUDY    65  52  62 VRB3      30.29R
CANADIAN       CLOUDY    71  52  51 E6        30.26R
DALHART        CLOUDY    65  49  56 E7        30.32R
DUMAS          CLOUDY    63  49  60 SE7       30.31R
GUYMON         NOT AVBL
HEREFORD       CLOUDY    60  56  88 E8        30.31R
PAMPA          CLOUDY    67  52  57 E7        30.30R
PERRYTON       CLOUDY    71  51  50 E12       30.27R
$$

SOUTHERN PANHANDLE/SOUTH PLAINS/ROLLING PLAINS

CITY           SKY/WX    TMP DP  RH WIND       PRES   REMARKS
LUBBOCK        CLOUDY    64  55  72 NE17G26   30.26R
SNYDER         CLOUDY    65  61  85 NE12      30.20R
CHILDRESS      LGT RAIN  63  59  87 CALM      30.26R
SEMINOLE       CLOUDY    65  57  77 E14       30.25S
$$

PERMIAN BASIN

CITY           SKY/WX    TMP DP  RH WIND       PRES   REMARKS
MIDLAND        SUNNY     71  57  61 NE20      30.18R
ODESSA         SUNNY     68  57  68 E18G30    30.21R
WINK           SUNNY     73  55  53 MISG      30.14R
$$

FAR WEST/SOUTHWEST MOUNTAINS/TRANS PECOS

CITY           SKY/WX    TMP DP  RH WIND       PRES   REMARKS
ALPINE         SUNNY     74  58  59 N9        30.26R
DRYDEN           N/A     79  64  60 NE13      30.06R
EL PASO        MOSUNNY   82  54  37 N9        30.10R
FORT STOCKTON  SUNNY     75  57  53 NE20      30.13R
GUADALUPE PASS SUNNY     66  53  63 NE46G53   30.23R
MARFA          SUNNY     75  58  55 NE3       30.22R
PECOS          SUNNY     73  58  59 NE17      30.15R
$$

DALLAS/FORT WORTH METROPLEX

CITY           SKY/WX    TMP DP  RH WIND       PRES   REMARKS
DFW AIRPORT    TSTM      72  71  97 NE15G22   30.15R FOG
FTW MEACHAM    RAIN      72  70  93 NE15G22   30.16R FOG
DAL-EXECUTIVE  TSTM      71  71 100 N10       30.15R FOG
GRAND PRAIRIE  CLOUDY    70  70 100 N9        30.16R
ADDISON        CLOUDY    72  70  94 N14       30.18R
MESQUITE       RAIN      72  70  94 NW9       30.16R FOG
LANCASTER      TSTM      70  69  97 N9        30.16R
$$

NORTH CENTRAL TEXAS

CITY           SKY/WX    TMP DP  RH WIND       PRES   REMARKS
SHRMAN/DENISON TSTM      68  67  98 E3        30.11S
GAINESVILLE    RAIN      67  66  96 E3        30.18R
BRIDGEPORT     RAIN      68  68 100 E5        30.20R
DENTON         HVY RAIN  70  70 100 E9        30.15S FOG
WAXAHACHIE     RAIN      71  71 100 NW3       30.16R
GRANBURY       TSTM      71  67  88 CALM      30.19R
$$

WESTERN NORTH TEXAS

CITY           SKY/WX    TMP DP  RH WIND       PRES   REMARKS
WICHITA FALLS  LGT RAIN  66  63  90 E12       30.17S
VERNON         CLOUDY    67  61  80 NE6       30.21F
BRECKENRIDGE   TSTM      69  68  98 E14G20    30.17F
COMANCHE       TSTM      66  66 100 NE15G22   30.19R
$$

CENTRAL AND SOUTH CENTRAL TEXAS

CITY           SKY/WX    TMP DP  RH WIND       PRES   REMARKS
AUSTIN/BERGSTM CLOUDY    81  76  84 N14       30.03R FOG
WACO           LGT RAIN  71  69  93 N9        30.11R
HILLSBORO      CLOUDY    72  70  96 N10       30.14R
TEMPLE         LGT RAIN  71  69  93 NE6       30.10R
KILLEEN-GRAY   CLOUDY    70  68  94 E14       30.10S
FORT HOOD      LGT RAIN  68  66  94 E14       30.07F FOG
GEORGETOWN     CLOUDY    72  64  78 NE9G16    30.09R
LAGO VISTA     LGT RAIN  72  67  87 NE10G29   30.10R
SAN MARCOS     PTSUNNY   81  77  89 NE7       30.04R FOG
NEW BRAUNFELS  PTSUNNY   82  76  81 E3        30.01R FOG
RANDOLPH AFB   CLOUDY    81  79  94 SE3       30.01R FOG
SAN ANTONIO    CLOUDY    81  75  82 SE5       30.02R
STINSON        PTSUNNY   82  76  81 SE6       29.98R
PLEASANTON     NOT AVBL
LA GRANGE      NOT AVBL
GIDDINGS       CLOUDY    74  68  82 NE7       30.04R
$$

EAST TEXAS

CITY           SKY/WX    TMP DP  RH WIND       PRES   REMARKS
PARIS            N/A     72  69  90 CALM      30.15R
CLARKSVILLE    NOT AVBL
TYLER          LGT RAIN  71  71 100 N10       30.11R
LONGVIEW       CLOUDY    73  71  93 N5        30.09R
PALESTINE      CLOUDY    70  70 100 N16       30.08R
NACOGDOCHES    CLOUDY    72  70  94 MISG      30.04R
$$

TEXAS HILL COUNTRY AND EDWARDS PLATEAU

CITY           SKY/WX    TMP DP  RH WIND       PRES   REMARKS
LLANO          TSTM      72  70  94 NW8       30.14R VSB 3/4
HORSESHOE BAY  CLOUDY    80  74  81 MISG      30.10R
KERRVILLE      CLOUDY    77  73  89 S7        30.06R
FREDERICKSBRG  CLOUDY    76  69  80 CALM      30.10R
ROCKSPRINGS    CLOUDY    75  73  94 NE5       30.12R
HONDO          PTSUNNY   81  75  82 SE6       30.01R
UVALDE         MOSUNNY   80  74  82 E10       30.01R
DEL RIO        CLOUDY    78  70  76 N8        29.99R
$$

SOUTHEAST TEXAS

CITY           SKY/WX    TMP DP  RH WIND       PRES   REMARKS
COLLEGE STN    CLOUDY    73  72  96 NW13      30.01F
CALDWELL       NOT AVBL
CROCKETT       CLOUDY    73  72  94 E6        30.06R
BRENHAM        PTSUNNY   78  74  89 N3        30.02S
HUNTSVILLE     CLOUDY    79  72  79 CALM      30.03R
CONROE         LGT RAIN  73  72  96 SW5       30.01F FOG
HOUSTON BUSH   CLOUDY    76  72  87 NE9       30.01R THUNDER
HOUSTON HOBBY  CLOUDY    80  75  84 W20       30.00R THUNDER
PERLAND        MOSUNNY   87  77  72 SE7       30.01R THUNDER
WHARTON        CLOUDY    78  75  88 CALM      30.00R
$$

THE UPPER TEXAS COAST

CITY           SKY/WX    TMP DP  RH WIND       PRES   REMARKS
ORANGE         TSTM      77  75  92 CALM      30.03F
PORT ARTHUR    PTSUNNY   79  73  82 NE8       30.01S THUNDER
GALVESTON      MOSUNNY   84  79  85 SE14      30.00R
ANGLETON       LGT RAIN  85  80  85 VRB6      29.99R
BAY CITY       CLOUDY    82  80  94 S3        29.97S
$$

TEXAS COASTAL BEND, RIO GRANDE PLAINS DEEP SOUTH TEXAS

CITY           SKY/WX    TMP DP  RH WIND       PRES   REMARKS
VICTORIA       CLOUDY    83  78  85 SE8       29.97R
BEEVILLE       FAIR      70  70 100 S5        29.95S
ROCKPORT       MOSUNNY   87  76  69 SE14G20   29.94S
PORT ARANSAS   MOSUNNY   85  76  74 SE14      29.95S
PORT LAVACA    MOSUNNY   86  80  81 S13G18    29.96S
CORPUS CHRISTI PTSUNNY   86  79  79 SE9       29.94S
KINGSVILLE NAS PTSUNNY   88  80  77 SE12      29.94S
COTULLA        MOSUNNY   81  75  82 SE6       29.98R
LAREDO         CLOUDY    83  76  79 SE9       29.96R
BROWNSVILLE    MOSUNNY   87  77  72 E12       29.94R
PORT ISABEL    PTSUNNY   86  77  74 SE15      29.93S
HEBBRONVILLE   CLOUDY    81  75  83 SE10      29.98R
MCALLEN        PTSUNNY   88  77  69 SE16G22   29.94R
WESLACO        CLOUDY    85  76  74 SE10G16   29.93R
FALFURRIAS     MOSUNNY   85  77  77 SE8       29.94R
EDINBURG       PTSUNNY   87  76  69 SE15      29.94S
$$



USA.gov is the U.S. government's official web portal to all federal, state and local government web resources and services.